Location: Unspecified
(58.9933°N, 5.6375°E)
Time: 21:16:53
(UTC+02:00)

Cosmos 2058 - Visible Passes

Search period start: 20 June 2018 00:00
Search period end: 30 June 2018 00:00
Orbit: 562 x 585 km, 82.5° (Epoch: 20 June)

Date Brightness Start Highest point End Pass type
(mag) Time Alt. Az. Time Alt. Az. Time Alt. Az.
20 Jun 3.0 01:17:25 10° S 01:21:35 75° E 01:25:44 10° NNE visible
20 Jun 4.9 02:55:50 10° WSW 02:59:01 21° WNW 03:02:11 10° N visible
21 Jun 2.9 01:20:34 10° SSW 01:24:44 89° W 01:28:54 10° NNE visible
22 Jun 3.1 01:23:46 10° SSW 01:27:55 73° WNW 01:32:04 10° N visible
23 Jun 3.3 01:26:59 10° SSW 01:31:05 59° WNW 01:35:12 10° N visible
24 Jun 3.7 01:30:16 10° SW 01:34:18 48° WNW 01:38:20 10° N visible
25 Jun 4.0 01:33:36 10° SW 01:37:31 40° WNW 01:41:26 10° N visible
26 Jun 4.3 01:36:59 10° SW 01:40:45 33° WNW 01:44:32 10° N visible
27 Jun 4.6 01:40:24 10° WSW 01:43:59 28° WNW 01:47:36 10° N visible
28 Jun 4.9 01:43:53 10° WSW 01:47:15 24° WNW 01:50:38 10° N visible
29 Jun 5.2 01:47:26 10° WSW 01:50:32 20° WNW 01:53:39 10° N visible
